TimeMST,TemperatureF,Dew PointF,Humidity,Sea Level PressureIn,VisibilityMPH,Wind Direction,Wind SpeedMPH,Gust SpeedMPH,PrecipitationIn,Events,Conditions,WindDirDegrees,DateUTC
12:53 AM,48.9,41.0,74,29.91,10.0,SSE,5.8,-,0.00,Rain,Light Rain,150,2012-11-18 07:53:00
1:53 AM,50.0,39.9,68,29.88,10.0,SE,11.5,-,0.00,,Overcast,130,2012-11-18 08:53:00
2:53 AM,51.1,39.0,63,29.88,10.0,South,16.1,-,N/A,,Mostly Cloudy,180,2012-11-18 09:53:00
3:53 AM,51.1,39.9,66,29.88,10.0,South,16.1,24.2,N/A,,Overcast,170,2012-11-18 10:53:00
4:53 AM,50.0,39.0,66,29.89,10.0,South,11.5,-,N/A,,Mostly Cloudy,170,2012-11-18 11:53:00
5:53 AM,51.1,39.0,63,29.89,10.0,SSE,12.7,-,N/A,,Mostly Cloudy,160,2012-11-18 12:53:00
6:53 AM,51.1,39.0,63,29.90,10.0,South,16.1,23.0,N/A,,Overcast,180,2012-11-18 13:53:00
7:53 AM,51.1,39.9,66,29.93,10.0,SSE,9.2,24.2,0.00,,Overcast,160,2012-11-18 14:53:00
8:53 AM,52.0,39.9,63,29.94,10.0,South,13.8,-,N/A,,Mostly Cloudy,180,2012-11-18 15:53:00
9:53 AM,52.0,41.0,66,29.95,10.0,South,19.6,27.6,0.00,Rain,Light Rain,170,2012-11-18 16:53:00
10:53 AM,55.0,39.9,57,29.96,10.0,SSE,18.4,-,0.00,,Mostly Cloudy,160,2012-11-18 17:53:00
11:53 AM,55.9,39.9,55,29.94,10.0,SSE,21.9,25.3,N/A,,Mostly Cloudy,160,2012-11-18 18:53:00
12:53 PM,55.9,39.9,55,29.94,10.0,South,15.0,24.2,N/A,,Overcast,180,2012-11-18 19:53:00
1:53 PM,55.0,39.9,57,29.94,10.0,South,15.0,23.0,0.00,Rain,Light Rain,170,2012-11-18 20:53:00
2:53 PM,55.9,39.9,55,29.93,10.0,SSE,17.3,-,0.00,,Mostly Cloudy,160,2012-11-18 21:53:00
3:53 PM,55.9,39.0,53,29.95,10.0,SSE,12.7,-,N/A,,Mostly Cloudy,160,2012-11-18 22:53:00
4:53 PM,54.0,39.0,57,29.96,10.0,South,18.4,24.2,N/A,,Scattered Clouds,170,2012-11-18 23:53:00
5:53 PM,50.0,37.9,63,29.98,10.0,SSE,8.1,-,N/A,,Scattered Clouds,160,2012-11-19 00:53:00
6:53 PM,50.0,37.9,63,29.99,10.0,SSE,8.1,-,N/A,,Mostly Cloudy,150,2012-11-19 01:53:00
7:53 PM,51.1,39.0,63,30.03,10.0,NNW,8.1,-,N/A,,Mostly Cloudy,330,2012-11-19 02:53:00
8:12 PM,46.4,39.2,76,30.09,10.0,North,18.4,23.0,N/A,,Overcast,10,2012-11-19 03:12:00
8:53 PM,46.0,39.9,79,30.05,10.0,NW,8.1,-,N/A,,Mostly Cloudy,310,2012-11-19 03:53:00
9:53 PM,43.0,39.0,86,30.08,10.0,WNW,5.8,-,N/A,,Scattered Clouds,300,2012-11-19 04:53:00
10:53 PM,42.1,39.0,89,30.09,10.0,Calm,Calm,-,N/A,,Scattered Clouds,0,2012-11-19 05:53:00
11:53 PM,41.0,39.0,93,30.08,10.0,SSE,6.9,-,N/A,,Scattered Clouds,160,2012-11-19 06:53:00